This is the latest recevied weather packets stored in our database for station/object KJ7BRE-1. If no packets are shown the sender has not sent any weather packets the latest 10 day(s).
| Time | Temp. | Humidity | Pressure | Rain* | Wind** | Luminosity | Snow |
|---|---|---|---|---|---|---|---|
| 1778041881 | 15.56° C | 78% | 1010.2 hPa | 0 mm | - | - | - |
| 1778041580 | 15.56° C | 78% | 1010.2 hPa | 0 mm | - | - | - |
| 1778041279 | 15.56° C | 77% | 1009.8 hPa | 0 mm | - | - | - |
| 1778040977 | 15.56° C | 77% | 1009.8 hPa | 0 mm | - | - | - |
| 1778040676 | 15.56° C | 78% | 1009.8 hPa | 0 mm | - | - | - |
| 1778040375 | 15.56° C | 78% | 1009.8 hPa | 0 mm | - | - | - |
| 1778040074 | 15.56° C | 77% | 1009.8 hPa | 0 mm | - | - | - |
| 1778039773 | 15.56° C | 76% | 1009.8 hPa | 0 mm | - | - | - |
| 1778039471 | 16.11° C | 75% | 1009.8 hPa | 0 mm | - | - | - |
| 1778039170 | 16.67° C | 73% | 1009.8 hPa | 0 mm | - | - | - |
| 1778038869 | 16.67° C | 72% | 1009.5 hPa | 0 mm | - | - | - |
| 1778038568 | 16.67° C | 72% | 1009.1 hPa | 0 mm | - | - | - |
| 1778038266 | 17.78° C | 70% | 1009.5 hPa | 0 mm | - | - | - |
| 1778037965 | 17.78° C | 69% | 1009.5 hPa | 0 mm | - | - | - |
| 1778037664 | 17.78° C | 82% | 1009.5 hPa | 0 mm | - | - | - |
| 1778037363 | 17.22° C | 87% | 1009.1 hPa | 0 mm | - | - | - |
| 1778037062 | 16.67° C | 80% | 1009.5 hPa | 0 mm | - | - | - |
| 1778036761 | 16.67° C | 72% | 1009.1 hPa | 0 mm | - | - | - |
| 1778036459 | 16.67° C | 71% | 1009.1 hPa | 0 mm | - | - | - |
| 1778036158 | 16.67° C | 71% | 1009.1 hPa | 0 mm | - | - | - |
| 1778035857 | 16.67° C | 72% | 1009.1 hPa | 0 mm | - | - | - |
| 1778035556 | 17.22° C | 70% | 1009.1 hPa | 0 mm | - | - | - |
| 1778035254 | 17.22° C | 70% | 1009.1 hPa | 0 mm | - | - | - |
| 1778034953 | 17.22° C | 70% | 1009.1 hPa | 0 mm | - | - | - |
| 1778034652 | 17.22° C | 68% | 1009.1 hPa | 0 mm | - | - | - |
* Rain latest hour (hover to see other rain measurements)
** Current wind speed in m/s (hover to see current wind gust speed)